User: anonymous   Login
Location: Trois-Rivi�res
(46.3500°N, 72.5500°W)
Time: 18:10:38
(UTC-04:00)
Language:

Cosmos 1975 - Orbit

View from above orbital plane
View from above orbital plane
View from above satellite
View from above satellite

Ground track
Ground track

The orbit data is extracted from the following two-line orbital elements,

1 19573U 88093A   16150.70638053  .00000959  00000-0  67800-4 0  9996
2 19573  82.5198 356.3657 0015018 158.1643 202.0226 15.03699459502178
Epoch (UTC): 29 May 2016 16:57:11
Eccentricity: 0.0015018
inclination: 82.5198°
perigee height: 545 km
apogee height: 566 km
right ascension of ascending node: 356.3657°
argument of perigee: 158.1643°
revolutions per day: 15.03699459
mean anomaly at epoch: 202.0226°
orbit number at epoch: 50217

The dashed part of the orbit path shows where the satellite is in the earth's shadow,  

DLR